DateTime,Index
1990101312,0.0
1990101318,0.0
1990101400,0.0
1990101406,0.0
1990101412,0.0
1990101418,0.0
1990101500,0.0
1990101506,0.0
1990101512,0.0
1990101518,0.0
1990101600,0.0
1990101606,0.0
1990101612,0.0
1990101618,1225.0
1990101700,1600.0
1990101706,2025.0
1990101712,2500.0
1990101718,3025.0
1990101800,3600.0
1990101806,4225.0
1990101812,4900.0
1990101818,6400.0
1990101900,8100.0
1990101906,8100.0
1990101912,8100.0
1990101918,8100.0
1990102000,8100.0
1990102006,8100.0
1990102012,8100.0
1990102018,8100.0
1990102100,8100.0
1990102106,7225.0
1990102112,6400.0
1990102118,5625.0
1990102200,4900.0
1990102206,4225.0
1990102212,3600.0
1990102218,3025.0
1990102300,2500.0
1990102306,2025.0
1990102312,1600.0
1990102318,1225.0
1990102400,0.0
